This demonstration page uses our WeatherBlox Daily Observations layout. Learn more.

Left ArrowRight Arrow

Hourly Observations for December 7, 2020

Temp ( °F °C ) Dew Point ( °F °C ) Humidity (%) Winds ( mph kmh ) Pressure ( in mb ) Visibility ( mi km ) Precip ( " mm )
12:53 am 00:53 Cloudy 34 1.1 26 -3.3 73 73 N 8 13 29.99 1016 10 16 0.00 0.00
1:53 am 01:53 Cloudy 33 0.6 25 -3.9 72 72 N 7 11 29.97 1015 10 16 0.00 0.00
2:53 am 02:53 Cloudy 33 0.6 25 -3.9 72 72 NE 5 7 29.96 1015 10 16 0.00 0.00
3:53 am 03:53 Cloudy 33 0.6 25 -3.9 72 72 N 7 11 29.97 1015 10 16 0.00 0.00
4:53 am 04:53 Cloudy 32 0 24 -4.4 73 73 NNE 5 7 29.97 1015 10 16 0.00 0.00
5:53 am 05:53 Cloudy 32 0 24 -4.4 73 73 N 6 9 29.97 1015 10 16 0.00 0.00
6:53 am 06:53 Cloudy 32 0 24 -4.4 73 73 NNE 7 11 29.99 1016 10 16 0.00 0.00
7:20 am 07:20 Cloudy 32 0 24 -4.4 73 73 N 6 9 30.01 1016 10 16 0.00 0.00
7:53 am 07:53 Cloudy 32 0 24 -4.4 73 73 N 6 9 30.01 1016 10 16 0.00 0.00
8:53 am 08:53 Cloudy 32 0 21 -6.1 64 64 N 5 7 30.01 1016 10 16 0.00 0.00
9:32 am 09:32 Cloudy 32 0 22 -5.6 66 66 N 6 9 30.04 1017 10 16 0.00 0.00
9:53 am 09:53 Cloudy 32 0 23 -5 69 69 NNW 9 15 30.03 1017 10 16 0.00 0.00
10:51 am 10:51 Cloudy 32 0 21 -6 64 64 N 7 11 30.06 1018 10 16 0.00 0.00
10:53 am 10:53 Cloudy 32 0 22 -5.6 66 66 N 8 13 30.05 1018 10 16 0.00 0.00
11:53 am 11:53 Cloudy 33 0.6 21 -6.1 61 61 NNW 10 17 30.04 1017 10 16 0.00 0.00
12:03 pm 12:03 Cloudy 33 0.6 21 -6.1 61 61 NW 10 17 30.05 1018 10 16 0.00 0.00
12:53 pm 12:53 Cloudy 33 0.6 21 -6.1 61 61 NW 7 11 30.03 1017 10 16 0.00 0.00
1:53 pm 13:53 Cloudy 35 1.7 21 -6.1 57 57 WNW 7 11 30.02 1017 10 16 0.00 0.00
2:53 pm 14:53 Cloudy 34 1.1 22 -5.6 61 61 NNW 5 7 30.03 1017 10 16 0.00 0.00
3:53 pm 15:53 Cloudy 34 1.1 22 -5.6 61 61 N 8 13 30.04 1017 10 16 0.00 0.00
4:53 pm 16:53 Cloudy 33 0.6 23 -5 66 66 WNW 9 15 30.06 1018 10 16 0.00 0.00
5:53 pm 17:53 Cloudy 32 0 22 -5.6 66 66 NW 9 15 30.09 1019 10 16 0.00 0.00
6:53 pm 18:53 Cloudy 32 0 21 -6.1 64 64 WNW 8 13 30.10 1019 10 16 0.00 0.00
7:53 pm 19:53 Cloudy 31 -0.6 21 -6.1 67 67 WNW 5 7 30.11 1020 10 16 0.00 0.00
8:53 pm 20:53 Cloudy 31 -0.6 22 -5.6 69 69 Calm 30.12 1020 10 16 0.00 0.00
9:53 pm 21:53 Cloudy 30 -1.1 22 -5.6 72 72 Calm 30.12 1020 10 16 0.00 0.00
10:53 pm 22:53 Cloudy 30 -1.1 22 -5.6 72 72 Calm 30.13 1020 10 16 0.00 0.00
11:53 pm 23:53 Cloudy 31 -0.6 23 -5 72 72 W 3 6 30.14 1021 10 16 0.00 0.00

Powered by AerisWeather